Location: Boda
(47.1872°N, 9.5454°E)
Time: 09:03:49
(UTC+00:00)

YAOGAN 11 - Pass Details

Date: 14 May 2021
Orbit: 614 x 667 km, 98.3° (Epoch: 16 June)

Event Time Altitude Azimuth Distance (km) Brightness Sun altitude
Exits shadow 00:28:53 67° 235° (SW) 671 3.9 -22.3°
Maximum altitude 00:29:06 69° 257° (WSW) 664 4.0 -22.3°
Drops below altitude 10° 00:33:24 10° 341° (NNW) 1,986 7.3 -22.0°
Sets 00:35:36 0° 344° (NNW) 2,896 8.4 -21.9°
